Погода в Буденновской

Россия / Ростовская область     46°55′59″N   41°32′54″E
темп.,
°C
ветер,
м/с
пор.,
м/с
влажн.,
%
обл.,
%
осадки,
мм/ч
давл.,
гПа
погр.,
м
14 апреля, ср
ср1400:00+10сз3495100 0.0 102085
03:00+10ссв349285 0.0 101861
06:00+9в3562100 0.0 101780
09:00+14юв2349100 0.0 1017420
12:00+15ююв334669 0.0 1016702
15:00+17ю3446100 0.0 10151502
18:00+15ююз4674100 0.1 1015315
21:00+11зюз378935 0.3 1016184
15 апреля, чт
чт1500:00+9зюз3792100 0.0 1017166
03:00+8з359072 0.0 101796
06:00+7з35905 0.0 101787
09:00+13з34653 0.0 1017483
12:00+17з44494 0.0 10171261
15:00+19з34445 0.0 10161728
18:00+16зюз345961 0.0 101683
21:00+13зюз11666 0.0 101710
16 апреля, пт
пт1600:00+11зюз22825 0.0 101617
03:00+9зсз228848 0.0 101715
06:00+9сз2291100 0.0 101829
09:00+14з117231 0.0 1018408
12:00+17зюз22565 0.4 10181156
15:00+18ююз1153100 1.7 10171340
18:00+13зсз6881100 1.8 1018342
21:00+11ссз3494100 8.5 1019153
17 апреля, сб
сб1700:00+11юз3693100 0.6 1019405
03:00+10зсз5988100 0.6 1020645
06:00+8з37915 0.2 1021379
09:00+11зсз45655 0.2 1022796
12:00+14з345336 0.0 10221708
15:00+15сз344532 0.1 10221786
18:00+14ссз235832 0.0 1022126
21:00+10ссв11647 0.0 102210
18 апреля, вс
вс1800:00+9св226792 0.0 102312
03:00+8всв337258 0.0 102328
06:00+7в3574100 0.0 102378
09:00+13вюв4660100 0.0 1022458
12:00+16юв4449100 0.0 10221334
15:00+14вюв3462100 0.1 1022757
18:00+11всв3584100 0.8 1022168
21:00+11в3880100 0.9 1021213